Location: Drocourt
(49.0571°N, 1.7669°E)
Time: 13:32:46
(UTC+00:00)

Cosmos 968 Rocket - Pass Details

Date: 09 February 2023
Orbit: 739 x 770 km, 74.0° (Epoch: 21 March)

Event Time Altitude Azimuth Distance (km) Brightness Sun altitude
Rises 18:28:07 0° 189° (S) 3,204 6.9 -14.4°
Reaches altitude 10° 18:30:29 10° 186° (S) 2,287 6.1 -14.8°
Maximum altitude 18:35:35 59° 108° (ESE) 885 3.5 -15.6°
Drops below altitude 10° 18:40:45 10° 30° (NNE) 2,320 5.7 -16.4°
Enters shadow 18:41:33 - 28° (NNE) 2,626 6.0 -16.6°
